Weather History for Harrison, AR

Change the Weather History Date:

Sunday, February 2, 2014

  Actual Average Record
Temperature  
Mean Temperature 22 °F 38 °F  
Max Temperature 28 °F 48 °F 77 °F (1920)
Min Temperature 15 °F 28 °F -14 °F (1951)
Degree Days  
Heating Degree Days 43 27  
Month to date heating degree days 65 54  
Since 1 July heating degree days 2748 2540  
Cooling Degree Days 0 0  
Month to date cooling degree days 0 0  
Year to date cooling degree days 0 0  
Moisture  
Dew Point 22 °F    
Average Humidity 83    
Maximum Humidity 92    
Minimum Humidity 73    
Precipitation  
Precipitation 0.30 in 0.09 in 2.02 in (1989)
Month to date precipitation 0.30 0.18  
Year to date precipitation 1.33 2.74  
Snow  
Snow 4.30 in 0.20 in 6.00 in (1929)
Month to date snowfall 4.3 0.4  
Since 1 July snowfall 14.3 6.4  
Snow Depth 0.00 in    
Sea Level Pressure  
Sea Level Pressure 30.20 in    
Wind  
Wind Speed 7 mph (North)    
Max Wind Speed 16 mph    
Max Gust Speed 22 mph    
Visibility 4 miles    
Events Fog , Snow    
T = Trace of Precipitation, MM = Missing Value Source: NWS Daily Summary

Daily Weather History Graph

Daily Weather History Graph

Search for Another Location

Airport:

Trip Planner

Search our weather history database for the weather conditions in past years. The results will help you decide how hot, cold, wet, or windy it might be!

Date:

Astronomy

Feb. 02, 2014 Rise Set
Actual Time 7:12 AM CST 5:40 PM CST
Civil Twilight 6:45 AM CST 6:07 PM CST
Nautical Twilight 6:15 AM CST 6:37 PM CST
Astronomical Twilight 5:44 AM CST 7:08 PM CST
Moon 8:47 AM CST (2/2) 9:16 PM CST (2/2)
Length of Visible Light 11h 21m
Length of Day
10h 27m
Waxing Crescent, 11% of the Moon is Illuminated
Feb 2
Waxing Crescent
Feb 6
First Quarter
Feb 14
Full
Feb 22
Last Quarter
Mar 1
New

Hourly Weather History & Observations

Time (CST) Temp. Windchill Dew Point Humidity Pressure Visibility Wind Dir Wind Speed Gust Speed Precip Events Conditions
12:00 AM 28.4 °F 19.1 °F 26.6 °F 93% 30.07 in 3.0 mi NW 10.4 mph - N/A   Overcast
12:28 AM 28.4 °F 23.3 °F 26.6 °F 93% 30.08 in 5.0 mi NW 4.6 mph - N/A   Overcast
12:53 AM 28.0 °F 20.0 °F 26.1 °F 92% 30.10 in 5.0 mi NNW 8.1 mph - N/A   Overcast
1:53 AM 28.0 °F 19.3 °F 26.1 °F 92% 30.12 in 4.0 mi NNW 9.2 mph 16.1 mph N/A   Overcast
2:53 AM 27.0 °F 17.3 °F 25.0 °F 92% 30.14 in 4.0 mi North 10.4 mph 18.4 mph N/A   Overcast
3:53 AM 26.1 °F 17.6 °F 24.1 °F 92% 30.17 in 5.0 mi North 8.1 mph - N/A   Overcast
4:53 AM 26.1 °F 20.5 °F 24.1 °F 92% 30.19 in 6.0 mi NNW 4.6 mph - N/A   Overcast
5:53 AM 26.1 °F 17.6 °F 23.0 °F 88% 30.19 in 8.0 mi NNW 8.1 mph 16.1 mph N/A   Overcast
6:53 AM 26.1 °F 16.2 °F 23.0 °F 88% 30.18 in 9.0 mi North 10.4 mph 19.6 mph N/A   Overcast
7:53 AM 26.1 °F 17.6 °F 23.0 °F 88% 30.23 in 9.0 mi North 8.1 mph - N/A   Overcast
8:48 AM 26.6 °F 19.1 °F 21.2 °F 80% 30.21 in 9.0 mi NNE 6.9 mph - N/A   Overcast
8:53 AM 26.1 °F 19.4 °F 23.0 °F 88% 30.24 in 8.0 mi NNE 5.8 mph - N/A   Overcast
9:07 AM 26.6 °F 18.2 °F 21.2 °F 80% 30.19 in 3.0 mi NNE 8.1 mph - 0.00 in Snow Light Snow
9:14 AM 26.6 °F 17.5 °F 23.0 °F 86% 30.20 in 1.8 mi NNE 9.2 mph - 0.00 in Snow Light Snow
9:28 AM 26.6 °F 21.2 °F 23.0 °F 86% 30.20 in 1.0 mi North 4.6 mph - 0.00 in Snow Light Snow
9:35 AM 26.6 °F 21.2 °F 23.0 °F 86% 30.20 in 0.8 mi NNE 4.6 mph - 0.00 in Snow Light Snow
9:45 AM 26.6 °F 19.1 °F 23.0 °F 86% 30.18 in 1.0 mi NNE 6.9 mph - 0.00 in Snow Light Snow
9:53 AM 26.1 °F 17.6 °F 23.0 °F 88% 30.22 in 1.0 mi NNE 8.1 mph - 0.00 in Snow Light Snow
10:04 AM 26.6 °F 16.2 °F 23.0 °F 86% 30.20 in 1.0 mi NNE 11.5 mph - 0.00 in Snow Light Snow
10:07 AM 26.6 °F 18.2 °F 23.0 °F 86% 30.20 in 0.8 mi North 8.1 mph - 0.00 in Snow Light Snow
10:12 AM 24.8 °F 16.1 °F 23.0 °F 93% 30.20 in 0.5 mi North 8.1 mph - 0.00 in Fog , Snow Snow
10:34 AM 24.8 °F 16.1 °F 24.8 °F 100% 30.24 in 0.8 mi NNW 8.1 mph - 0.00 in Snow Light Snow
10:53 AM 25.0 °F 15.5 °F 23.0 °F 92% 30.29 in 0.5 mi NW 9.2 mph - 0.00 in Fog , Snow Snow
10:58 AM 24.8 °F 16.1 °F 23.0 °F 93% 30.26 in 0.2 mi NW 8.1 mph - 0.00 in Fog , Snow Heavy Snow
11:53 AM 25.0 °F 16.3 °F 23.0 °F 92% 30.27 in 0.2 mi NNW 8.1 mph - 0.00 in Fog , Snow Snow
12:00 PM 24.8 °F 15.3 °F 21.2 °F 86% 30.22 in 0.5 mi NNW 9.2 mph - 0.00 in Fog , Snow Snow
12:15 PM 24.8 °F 16.1 °F 23.0 °F 93% 30.21 in 0.5 mi NNW 8.1 mph - 0.00 in Fog , Snow Snow
12:41 PM 24.8 °F 15.3 °F 23.0 °F 93% 30.17 in 0.2 mi North 9.2 mph - 0.00 in Fog , Snow Snow
12:53 PM 25.0 °F 15.5 °F 23.0 °F 92% 30.22 in 0.2 mi North 9.2 mph - 0.00 in Fog , Snow Heavy Snow
1:08 PM 24.8 °F 14.6 °F 23.0 °F 93% 30.17 in 0.5 mi North 10.4 mph - 0.00 in Fog , Snow Snow
1:14 PM 24.8 °F 16.1 °F 21.2 °F 86% 30.17 in 0.8 mi North 8.1 mph - 0.00 in Snow Light Snow
1:28 PM 24.8 °F 16.9 °F 23.0 °F 93% 30.18 in 1.2 mi NNW 6.9 mph - 0.00 in Snow Light Snow
1:35 PM 24.8 °F 16.9 °F 23.0 °F 93% 30.18 in 1.5 mi NNW 6.9 mph - 0.00 in Snow Light Snow
1:49 PM 26.6 °F 21.2 °F 23.0 °F 86% 30.19 in 2.0 mi North 4.6 mph - 0.00 in Snow Light Snow
1:53 PM 26.1 °F 19.4 °F 23.0 °F 88% 30.23 in 2.0 mi NNW 5.8 mph - 0.00 in Snow Light Snow
2:03 PM 26.6 °F 20.0 °F 23.0 °F 86% 30.18 in 1.5 mi North 5.8 mph - 0.00 in Snow Light Snow
2:36 PM 26.6 °F 19.1 °F 21.2 °F 80% 30.17 in 1.5 mi North 6.9 mph - 0.00 in Snow Light Snow
2:43 PM 26.6 °F 16.8 °F 21.2 °F 80% 30.15 in 1.5 mi North 10.4 mph 16.1 mph 0.00 in Snow Light Snow
2:51 PM 24.8 °F 14.0 °F 21.2 °F 86% 30.14 in 1.5 mi NNE 11.5 mph - 0.00 in Snow Light Snow
2:53 PM 25.0 °F 16.3 °F 21.9 °F 88% 30.19 in 1.5 mi North 8.1 mph - 0.00 in Snow Light Snow
3:20 PM 24.8 °F 15.3 °F 21.2 °F 86% 30.16 in 3.0 mi North 9.2 mph - 0.00 in Snow Light Snow
3:30 PM 24.8 °F 16.1 °F 21.2 °F 86% 30.15 in 4.0 mi North 8.1 mph - 0.00 in Snow Light Snow
3:40 PM 24.8 °F 15.3 °F 21.2 °F 86% 30.14 in 5.0 mi North 9.2 mph 17.3 mph 0.00 in Snow Light Snow
3:53 PM 24.1 °F 15.2 °F 21.0 °F 88% 30.19 in 7.0 mi North 8.1 mph - 0.00 in   Overcast
4:01 PM 24.8 °F 14.6 °F 19.4 °F 80% 30.15 in 8.0 mi North 10.4 mph 18.4 mph N/A   Overcast
4:23 PM 24.8 °F 16.1 °F 19.4 °F 80% 30.16 in 6.0 mi NNW 8.1 mph - 0.00 in Snow Light Snow
4:43 PM 24.8 °F 17.9 °F 19.4 °F 80% 30.19 in 7.0 mi North 5.8 mph - 0.00 in Snow Light Snow
4:53 PM 24.1 °F 17.0 °F 19.9 °F 84% 30.22 in 4.0 mi North 5.8 mph - 0.00 in Snow Light Snow
5:21 PM 24.8 °F 16.9 °F 19.4 °F 80% 30.20 in 4.0 mi NNW 6.9 mph - 0.00 in Snow Light Snow
5:53 PM 23.0 °F 14.7 °F 19.0 °F 85% 30.25 in 9.0 mi NNW 6.9 mph - 0.00 in Snow Light Snow
6:08 PM 23.0 °F 13.1 °F 19.4 °F 86% 30.19 in 3.0 mi NNW 9.2 mph - 0.00 in Snow Light Snow
6:15 PM 23.0 °F 15.8 °F 19.4 °F 86% 30.19 in 2.0 mi NNW 5.8 mph - 0.00 in Snow Light Snow
6:29 PM 23.0 °F 14.7 °F 19.4 °F 86% 30.20 in 3.0 mi North 6.9 mph - 0.00 in Snow Light Snow
6:53 PM 21.9 °F 13.4 °F 19.0 °F 89% 30.24 in 7.0 mi NNW 6.9 mph - 0.00 in   Overcast
7:53 PM 21.9 °F 13.4 °F 18.0 °F 85% 30.25 in 10.0 mi NW 6.9 mph - N/A   Overcast
8:53 PM 21.0 °F 12.4 °F 16.0 °F 81% 30.26 in 10.0 mi WNW 6.9 mph - N/A   Overcast
9:53 PM 19.9 °F 13.4 °F 12.9 °F 74% 30.28 in 10.0 mi NW 4.6 mph - N/A   Mostly Cloudy
10:53 PM 17.1 °F 11.7 °F 12.0 °F 81% 30.30 in 10.0 mi NW 3.5 mph - N/A   Clear
11:53 PM 15.1 °F 7.7 °F 10.9 °F 84% 30.29 in 10.0 mi WNW 4.6 mph - N/A   Clear